Wind_Speed
46 46 46 45 44 43 41 37 32 30 31 31 31 32 34 36 35 36 36 35 34 34 32 31 30 31 32 32 33 34 31 29 27 24 22 20 21 22 23 23 23 24 24 22 21 21 20 19 18 18 19 18 17 16 15 15 15 15 14 14 13 12 11 11 13 16 16 16 16 15 15 15 15 15 15 16 17 18 18 18 18 19 19 19 19 19
46 46 45 44 42 40 38 35 33 32 32 32 32 33 35 36 36 36 36 35 34 34 33 31 30 31 32 33 34 35 33 30 30 29 26 23 22 23 25 28 27 26 25 23 20 19 19 18 18 18 18 17 16 15 15 16 15 15 14 13 12 11 11 12 14 16 16 16 15 15 14 14 14 14 15 17 18 18 18 18 19 19 19 19 19 19
47 46 45 44 42 41 39 37 35 34 34 33 33 34 35 37 37 37 36 35 33 33 32 31 30 32 33 33 34 35 34 32 31 30 28 25 24 24 26 29 28 29 28 24 21 19 19 19 19 18 17 16 15 15 16 16 16 15 14 12 11 11 12 13 14 15 15 15 15 14 13 13 14 14 15 17 18 18 18 18 19 19 19 19 19 18
46 45 44 43 42 42 41 39 37 36 35 35 34 35 36 36 38 37 36 34 33 33 32 31 31 33 32 33 35 35 34 33 32 30 28 26 25 25 24 25 25 28 28 24 20 19 19 19 18 17 16 16 16 16 16 16 15 14 12 10 10 10 12 14 15 14 15 14 14 13 13 13 13 14 16 17 18 18 18 19 19 20 20 20 19 19
44 42 42 42 41 41 40 39 38 37 36 34 33 34 35 35 37 38 36 34 33 33 33 33 33 34 33 34 35 34 33 32 32 30 28 26 24 24 22 21 21 20 21 22 21 20 20 18 17 17 16 17 17 16 16 15 14 12 10 9 9 10 12 13 13 14 15 14 14 13 13 13 14 15 16 17 18 18 19 19 19 20 20 20 20 19
43 42 41 41 41 40 40 39 38 36 35 33 33 33 34 35 36 37 36 35 34 34 35 35 36 36 35 35 35 34 33 32 31 31 28 25 23 23 22 21 22 18 17 20 23 21 19 16 15 15 16 17 17 17 16 15 13 10 9 8 8 10 12 12 13 14 14 14 14 14 13 13 14 15 16 17 18 19 19 20 20 20 21 21 20 20
44 43 42 41 41 41 40 39 38 37 35 34 32 31 33 36 37 36 36 36 35 36 36 36 37 38 37 37 36 35 33 32 32 31 28 26 24 23 23 24 25 22 19 17 18 19 17 14 14 15 16 17 17 17 16 14 12 10 9 9 9 10 13 13 14 14 14 14 15 14 13 13 14 15 16 18 19 20 20 21 21 20 20 20 20 20
45 44 43 42 42 42 41 40 39 38 36 34 32 31 33 35 36 35 35 36 37 37 38 38 38 39 38 38 36 35 35 34 33 31 29 27 25 23 24 27 26 23 21 18 15 14 14 12 12 13 15 16 16 16 16 14 12 11 11 10 9 11 13 15 16 16 15 15 16 15 13 13 13 14 16 18 19 20 21 21 21 21 21 20 20 20
45 43 43 42 42 42 42 40 38 37 36 34 31 31 33 34 35 34 34 35 37 38 40 40 39 39 39 38 36 35 36 34 32 31 27 26 26 23 25 29 28 23 21 21 16 12 11 11 10 11 12 14 15 16 15 14 12 11 12 11 10 10 12 14 16 16 15 15 15 14 13 13 13 15 17 18 19 19 19 20 20 21 21 21 21 20
42 41 40 40 40 40 39 38 37 37 36 33 31 31 33 35 36 35 35 36 37 40 41 41 40 39 39 38 36 35 34 31 29 28 26 25 26 25 27 31 29 25 22 20 16 13 11 11 12 12 12 13 15 16 15 14 12 12 13 13 13 12 12 13 13 13 13 13 13 13 12 13 14 15 17 18 19 18 18 18 19 21 21 21 21 21
42 40 41 41 41 39 38 37 37 37 36 33 32 33 34 37 37 37 37 37 39 42 42 41 41 40 39 38 36 33 29 27 27 26 25 25 26 27 29 32 30 25 22 19 16 12 11 13 14 13 13 13 15 16 15 15 14 13 14 14 14 14 13 11 10 10 11 12 12 12 13 13 15 16 17 18 18 18 18 18 19 20 21 21 21 22
44 43 43 43 42 41 40 40 40 39 37 35 34 35 36 38 39 39 39 40 42 44 43 40 40 41 41 38 34 29 25 25 26 25 24 25 26 26 29 32 31 26 22 18 15 12 12 14 14 13 13 13 14 14 15 15 14 14 14 14 14 14 13 11 10 10 11 12 12 12 13 14 15 16 17 18 18 18 18 19 20 20 21 21 22 23
45 45 44 43 42 41 41 41 41 41 39 37 36 37 39 42 43 43 43 44 46 46 42 40 40 42 42 38 31 26 25 25 24 23 23 24 26 27 28 31 32 28 24 19 17 16 16 16 15 14 14 14 14 13 13 15 15 14 14 14 14 14 13 13 12 12 12 12 12 12 13 14 15 16 17 18 18 19 19 20 21 21 21 22 23 24
47 46 45 44 43 42 42 41 42 41 40 39 38 39 41 44 46 47 47 46 47 45 42 40 41 43 43 38 31 26 25 24 24 24 24 26 28 27 27 29 30 28 24 21 19 19 19 17 14 14 15 15 15 13 13 14 14 14 14 14 14 14 14 14 14 13 12 11 12 12 13 14 15 15 16 17 18 19 20 21 21 22 22 22 24 25
46 46 46 45 44 43 43 42 40 38 37 37 38 38 40 43 45 47 47 46 46 45 41 41 43 44 42 37 31 27 25 24 24 24 24 26 28 29 28 29 28 26 24 23 23 22 20 17 14 13 13 14 14 13 12 12 13 14 13 14 14 14 15 15 13 12 11 11 12 13 13 14 14 15 16 17 18 19 20 21 22 22 22 23 24 25
43 44 44 44 44 43 43 43 41 39 39 38 38 39 40 42 43 45 46 45 45 44 42 42 43 44 41 34 30 27 25 25 25 24 25 25 27 28 29 29 29 29 28 27 25 22 18 15 12 10 10 10 11 11 11 11 11 13 14 15 15 16 15 14 13 12 11 12 12 13 14 14 14 15 17 18 19 20 21 22 23 23 23 24 25 26
43 43 43 42 42 42 42 41 41 41 42 41 41 42 42 42 43 45 46 45 45 45 43 42 43 42 38 33 30 29 27 27 27 26 26 26 26 27 29 31 33 33 31 28 25 21 16 13 10 8 7 8 9 10 10 10 10 11 12 14 15 16 15 14 12 12 12 12 13 13 14 15 15 17 18 19 20 21 23 23 24 24 24 25 26 26
42 42 42 42 42 42 41 40 40 40 40 41 42 42 41 41 42 44 46 47 47 47 44 42 42 40 37 33 32 31 29 28 28 26 27 28 27 27 27 29 30 29 25 23 22 18 15 12 9 7 7 8 9 10 10 10 10 10 11 12 13 13 13 12 12 12 13 13 14 15 15 16 17 18 19 20 21 22 24 24 24 24 24 25 26 26
41 41 41 41 42 42 41 41 42 43 42 41 40 40 40 41 42 44 46 47 48 47 45 43 42 40 38 34 32 30 29 28 27 26 26 27 27 26 26 27 26 24 21 18 15 14 14 12 10 8 8 9 10 11 11 11 11 11 10 11 11 12 12 12 13 13 14 14 15 15 16 18 19 20 20 21 22 23 24 25 24 24 24 25 26 27
42 42 41 40 41 42 43 44 45 46 45 44 43 42 41 42 43 43 43 44 44 45 44 43 43 42 39 34 31 30 29 28 28 26 26 26 25 25 26 27 25 25 25 20 13 12 14 13 11 9 10 10 10 11 12 11 11 11 11 12 12 12 13 13 14 14 15 16 16 17 18 20 21 21 21 22 23 24 25 26 25 25 25 26 27 27
42 42 42 41 42 44 46 47 46 45 44 45 44 44 44 44 43 42 42 42 41 41 41 41 42 41 40 35 31 30 30 29 29 29 28 27 26 26 28 29 26 27 30 23 14 13 15 14 12 11 11 11 11 11 12 12 12 12 12 12 12 13 13 14 14 15 16 17 17 19 20 22 22 22 22 23 24 25 26 27 26 26 26 27 28 28
42 42 42 42 44 46 46 44 43 42 41 41 41 40 42 43 42 42 43 42 41 40 39 38 38 38 38 37 33 31 31 31 31 31 30 28 26 27 29 30 28 26 27 23 16 15 15 14 14 14 14 13 13 14 13 13 12 12 12 12 12 14 15 15 16 17 17 18 19 20 22 23 23 23 24 24 25 26 27 28 27 27 28 29 29 28
42 42 42 43 43 43 42 40 41 41 40 40 40 39 39 40 39 39 41 40 40 40 38 36 35 34 35 35 34 32 32 32 31 31 30 27 26 27 29 30 28 24 23 21 18 18 18 17 17 18 16 16 17 17 16 15 14 14 14 13 14 15 16 17 17 18 19 19 20 21 23 24 24 25 25 26 26 27 28 29 29 29 29 30 30 29
42 42 42 43 41 40 39 40 41 41 42 43 42 41 41 40 40 39 39 38 37 37 35 33 33 31 30 31 32 31 31 31 31 30 29 27 25 26 27 28 27 23 22 21 21 22 22 20 20 20 18 18 19 19 18 18 17 16 15 15 16 17 19 19 19 20 20 20 21 22 23 25 25 26 26 26 27 28 29 30 30 30 30 31 30 30
42 42 43 43 43 43 43 43 44 46 46 45 44 43 42 42 42 42 41 39 37 36 35 34 32 30 28 28 29 30 30 30 30 30 29 27 26 26 27 26 24 23 23 23 23 24 24 21 21 21 20 19 21 21 21 20 19 17 16 16 18 19 21 21 21 21 21 21 22 23 25 26 26 27 27 28 29 29 30 31 31 31 31 31 31 30
39 40 42 43 44 45 47 48 49 49 49 47 45 44 43 43 43 42 42 41 39 37 36 34 32 30 29 28 28 29 29 29 29 29 29 27 27 27 26 25 24 23 24 24 25 26 25 23 21 21 21 21 22 23 23 21 18 16 16 17 19 20 21 22 22 22 21 22 23 24 26 26 27 28 28 29 30 31 31 31 31 31 32 32 31 30
37 38 39 40 41 41 42 43 44 46 46 46 45 45 45 44 43 42 43 41 39 37 36 34 33 32 31 29 29 30 30 30 30 30 29 28 28 28 26 25 25 25 25 26 27 27 25 23 21 21 22 22 23 24 25 24 22 20 19 19 20 20 21 21 22 22 22 23 24 25 26 27 28 29 29 30 31 32 32 31 31 32 32 31 31 30
38 38 38 38 39 40 39 39 41 43 43 43 43 43 44 44 44 43 43 41 39 38 37 35 33 33 32 31 30 30 30 30 30 30 29 28 28 28 27 27 27 27 26 26 26 24 22 22 22 22 22 23 23 25 27 27 25 24 22 21 22 22 22 22 23 23 23 24 25 26 27 28 29 29 30 31 32 32 32 32 32 32 31 31 30 29
39 39 39 39 40 40 41 40 41 42 42 42 42 42 43 44 44 44 42 41 40 39 38 35 34 33 32 31 31 30 30 30 30 29 29 29 30 30 29 28 28 28 28 26 23 21 20 21 22 22 22 22 23 25 27 27 26 25 25 24 24 24 24 24 24 24 25 25 26 27 28 29 30 31 31 32 32 32 32 32 32 32 31 31 30 30
39 39 40 40 40 41 41 41 41 42 42 42 42 42 43 43 43 42 41 40 40 39 38 36 35 34 32 32 32 32 31 31 31 30 29 29 30 30 30 30 29 29 29 26 24 23 22 22 22 22 22 22 23 25 27 28 27 27 27 28 28 28 27 26 25 25 26 26 27 28 29 30 31 32 32 32 32 32 32 32 32 32 31 31 30 30
39 39 40 39 39 40 41 41 42 42 42 42 41 42 42 43 43 43 42 41 40 40 39 38 37 36 34 33 33 32 32 31 31 30 29 28 28 28 29 29 28 28 27 27 26 25 24 23 23 23 23 24 25 26 28 29 29 30 32 32 32 32 30 28 27 27 28 28 28 29 30 31 32 32 32 32 31 32 32 32 32 32 32 31 30 29
38 38 39 40 39 39 40 41 41 41 41 40 40 41 41 43 44 44 43 42 41 40 39 39 38 37 35 34 33 33 32 31 31 30 29 27 27 27 26 26 26 27 27 28 27 26 25 26 26 25 25 26 26 27 30 32 32 33 34 35 35 34 32 30 29 29 29 29 30 30 31 32 32 32 31 31 31 32 32 32 32 32 32 31 30 29
37 37 38 39 39 38 39 40 40 39 39 40 40 41 41 42 43 43 43 42 41 41 40 39 38 37 36 35 34 33 33 32 31 30 29 28 28 27 27 28 28 29 29 28 28 28 28 27 27 26 25 26 28 30 32 33 33 33 33 33 34 35 33 30 30 31 30 30 31 31 32 32 32 31 31 31 31 32 32 32 32 32 31 30 29 28
35 36 36 37 37 37 37 38 38 38 39 40 40 40 40 41 41 42 42 41 41 40 40 39 38 37 37 36 35 34 33 32 31 31 31 31 30 29 29 29 30 31 30 27 27 28 27 26 27 26 26 27 29 30 31 31 32 31 30 30 31 33 33 32 32 32 32 32 32 32 32 31 31 31 30 31 31 31 31 32 31 31 30 28 28 27
34 36 36 36 36 36 37 37 37 38 39 39 40 40 40 40 40 40 40 40 40 40 39 39 38 38 37 37 36 35 34 34 33 33 32 32 32 31 30 30 31 31 29 25 25 27 27 28 28 28 28 28 29 31 31 30 30 30 29 29 29 31 33 35 34 33 34 33 32 32 31 30 30 30 30 30 30 30 31 31 30 29 28 27 25 24
32 34 36 37 37 37 38 37 37 38 39 40 40 40 39 39 39 40 40 40 39 39 39 39 39 39 38 38 37 37 36 35 34 34 33 33 32 31 30 30 30 29 26 25 27 29 28 28 28 27 28 29 30 31 31 30 30 30 30 29 28 30 33 36 35 34 34 34 33 32 30 29 29 28 28 29 29 29 30 29 29 27 26 24 23 21
31 33 35 36 37 37 38 37 36 36 38 39 40 40 40 40 40 40 39 39 39 38 39 40 40 40 39 38 38 37 36 36 35 35 34 33 32 32 30 30 29 28 27 27 27 27 26 25 25 25 27 29 30 31 31 31 31 31 31 30 29 30 31 34 35 34 34 34 32 31 29 28 27 27 27 28 28 28 28 28 27 25 24 22 21 21
30 32 32 33 34 35 36 36 35 34 35 37 39 40 41 40 40 40 39 39 39 39 40 41 40 40 39 37 37 36 36 36 36 34 34 33 33 32 31 30 30 28 28 27 26 25 25 25 26 26 26 27 29 30 31 31 32 32 31 30 30 30 31 33 33 33 33 32 32 30 28 26 26 26 27 27 27 27 26 26 25 23 22 21 21 21
29 30 31 32 33 34 35 35 36 34 32 34 37 39 40 40 40 41 40 40 40 41 40 40 39 37 36 36 35 35 36 36 34 33 32 32 32 32 32 31 31 29 28 27 26 26 27 28 28 28 28 28 29 29 30 31 31 31 30 30 30 30 32 33 33 32 31 30 30 28 25 24 24 25 26 26 25 25 24 24 23 22 21 21 22 22
28 30 31 33 34 34 34 36 37 36 32 31 33 36 37 38 38 39 39 39 40 39 38 38 37 36 35 35 35 35 34 33 31 30 30 30 30 31 32 32 31 30 29 28 29 29 29 29 30 31 30 30 30 31 31 31 31 31 31 31 31 31 32 32 31 30 29 29 27 25 23 23 24 25 24 24 23 23 22 22 22 22 21 22 23 24
27 30 31 33 34 35 35 36 37 38 35 30 29 32 33 35 36 36 35 35 35 35 34 34 34 34 34 34 33 33 32 30 30 30 31 29 29 29 30 30 30 30 30 31 31 30 30 31 31 31 29 28 28 29 30 31 32 32 31 32 32 32 32 32 30 28 28 27 25 23 23 23 23 23 22 22 22 21 22 22 22 22 22 23 24 25
24 29 31 32 34 34 35 35 36 37 37 33 29 29 30 31 32 31 31 31 32 32 32 32 32 32 32 32 32 32 31 31 31 32 32 31 30 31 31 31 31 32 32 32 32 31 31 32 31 29 26 26 27 28 29 31 31 31 32 33 33 32 31 29 28 27 26 25 24 23 23 22 21 21 21 21 21 21 22 23 23 22 22 24 25 26
17 23 28 31 33 33 34 35 34 34 35 35 32 30 28 28 28 27 28 30 31 31 32 32 31 31 30 30 30 30 30 30 30 31 32 33 34 33 33 32 33 33 33 33 33 32 32 31 29 27 26 26 27 28 29 28 28 30 32 31 29 28 28 27 26 25 24 24 24 23 22 20 19 20 20 21 22 22 23 23 23 23 23 24 26 27
13 15 20 25 30 33 34 36 33 30 29 30 31 30 28 28 29 28 28 29 30 30 30 30 30 29 28 28 27 27 27 27 28 30 32 35 36 35 34 34 34 34 34 33 32 32 32 30 28 26 25 27 29 29 28 27 26 26 26 25 24 25 27 27 26 25 25 24 23 21 19 18 19 19 21 22 23 23 23 24 24 24 24 25 26 26
13 12 12 16 23 29 33 34 32 28 26 26 27 27 27 28 29 29 29 30 30 30 29 29 30 29 28 27 26 26 25 25 27 30 32 33 35 35 34 34 34 33 33 32 32 32 32 30 27 25 24 26 28 28 25 23 23 23 23 24 25 26 27 26 25 24 23 20 18 18 18 18 18 20 22 23 24 24 24 25 24 23 24 25 25 25
15 14 12 12 16 22 28 32 32 29 27 26 26 27 28 28 28 29 30 31 31 31 31 31 31 30 30 29 27 26 25 24 26 30 33 34 34 33 33 33 32 32 32 32 33 33 31 29 27 24 23 24 26 25 21 19 20 22 24 25 25 26 26 23 22 21 19 17 17 17 18 18 19 21 22 23 24 24 24 23 23 23 24 24 24 22
14 16 15 15 16 17 21 25 28 29 28 28 28 28 29 29 29 30 30 31 32 32 33 33 32 32 31 30 28 26 25 24 26 29 31 33 33 33 33 34 34 33 34 34 34 33 31 29 26 23 22 23 24 23 20 21 23 24 25 25 24 23 22 20 18 18 17 17 17 17 18 19 20 21 21 22 22 22 22 21 22 23 23 23 21 20
14 15 16 17 17 18 18 19 22 25 28 29 29 29 28 29 29 29 30 31 32 33 34 36 36 35 34 32 30 28 26 25 25 25 26 28 29 30 32 33 33 33 33 33 32 31 29 27 22 20 21 22 22 22 22 23 23 21 20 20 20 19 18 17 17 17 17 17 17 17 18 19 20 20 21 21 21 21 21 22 23 22 21 20 20 19
14 15 15 16 17 18 20 21 23 25 27 28 28 28 28 28 27 28 29 29 30 30 32 34 36 37 37 35 33 30 28 26 24 23 23 24 26 27 28 29 30 30 29 29 29 28 27 24 20 18 19 20 21 21 22 23 21 19 17 17 17 16 16 15 15 16 16 17 18 19 19 20 21 21 21 21 21 21 22 22 22 21 20 19 18 17
16 15 15 16 17 19 21 22 24 25 26 27 27 27 27 27 27 26 27 27 26 26 27 29 31 33 35 35 34 31 29 26 25 24 24 24 25 26 27 27 27 28 27 27 27 26 25 22 19 17 18 19 20 21 23 23 22 21 20 19 17 16 15 15 16 17 18 18 19 20 20 21 21 21 21 21 22 22 23 22 20 19 19 18 17 16
17 16 16 16 17 19 20 22 23 24 25 26 27 27 27 26 26 26 26 25 24 24 24 26 28 30 32 33 33 32 30 28 27 26 26 26 27 27 27 27 27 27 26 26 26 26 24 22 18 17 17 18 19 20 22 22 22 21 19 18 17 16 17 17 18 18 19 19 19 20 20 20 20 20 21 22 23 23 22 20 19 18 18 17 16 15
Wind_Direction
217 217 218 219 219 218 218 218 217 218 220 220 218 215 209 206 211 216 216 216 217 219 220 220 221 223 225 227 229 232 229 221 221 225 230 239 247 248 246 243 233 224 219 217 218 219 221 223 222 222 224 227 230 232 235 239 242 245 249 253 253 251 247 244 240 238 243 249 249 249 253 256 260 264 268 273 278 284 290 295 299 302 304 306 305 305
216 218 218 217 216 216 216 215 214 214 217 218 216 214 209 205 209 214 216 216 217 219 220 220 220 222 224 226 229 232 231 226 225 231 237 240 243 244 242 239 229 220 219 219 219 218 218 219 219 221 224 225 226 227 231 235 238 242 248 249 250 247 239 234 233 231 235 243 246 249 253 257 262 267 272 277 282 288 293 298 302 305 307 307 305 304
215 216 216 214 212 211 212 211 209 211 214 215 214 212 209 205 208 213 214 215 217 219 220 219 220 223 224 226 229 231 232 231 228 229 231 233 237 237 238 240 228 213 215 220 219 214 210 211 213 215 218 217 219 222 225 230 234 240 244 245 248 245 232 225 223 224 231 241 245 249 254 258 264 270 275 280 285 290 296 302 306 308 307 306 304 302
215 214 213 211 210 210 210 209 207 208 211 213 212 211 208 205 208 212 212 214 215 218 221 220 221 224 225 227 230 231 232 233 233 231 229 231 237 237 240 248 233 210 208 211 210 207 204 205 208 209 212 213 215 218 221 227 233 237 242 245 249 241 224 217 218 224 233 239 242 245 251 259 268 274 277 281 286 293 299 304 307 307 306 304 302 301
215 214 212 210 210 210 210 209 207 208 210 212 211 210 206 206 210 212 211 212 213 216 220 220 223 225 226 228 230 232 233 234 234 233 231 231 235 242 245 241 228 212 202 194 192 199 203 203 207 208 211 212 212 214 219 226 231 234 239 245 244 229 213 212 220 228 233 235 237 242 251 262 270 273 277 283 289 295 300 305 307 306 304 302 301 302
212 211 211 210 210 210 210 209 208 208 209 211 211 208 205 206 210 212 212 211 211 215 218 220 223 225 226 229 231 232 233 234 236 235 233 229 230 241 239 219 207 202 193 185 182 187 194 200 208 211 212 212 210 211 217 223 227 230 233 235 229 215 207 213 223 229 232 235 239 244 251 262 270 275 281 287 292 297 301 305 306 304 302 301 301 301
211 209 208 208 208 209 210 209 208 207 208 209 208 206 205 206 210 212 212 211 211 214 217 219 222 224 225 228 230 232 233 234 236 236 232 228 231 237 227 208 200 194 187 184 178 174 178 192 206 213 214 212 209 211 216 222 224 221 223 223 216 208 209 217 225 229 235 242 246 249 254 264 272 280 285 290 295 299 302 304 305 304 303 302 300 300
210 208 207 206 206 207 209 209 208 208 207 207 205 204 204 206 209 213 213 212 211 213 216 219 221 225 226 226 228 230 232 232 234 236 232 229 235 233 215 207 203 194 185 184 182 171 167 183 203 211 213 212 211 213 216 220 220 215 217 221 215 209 212 220 228 233 241 249 252 253 260 269 277 281 285 291 296 299 302 305 307 307 305 303 301 300
209 206 206 206 205 206 207 207 208 208 208 205 203 203 203 204 208 212 213 213 212 213 216 219 221 225 227 225 225 228 231 230 230 233 231 230 233 225 211 209 206 199 190 185 192 195 179 181 194 200 204 206 209 213 216 219 217 214 220 225 225 221 220 224 230 236 244 251 253 256 266 275 280 283 286 290 294 299 304 308 309 308 306 304 301 301
209 206 205 206 207 207 207 207 207 208 207 204 202 202 202 203 206 210 213 213 212 213 215 219 222 226 229 227 225 225 226 226 228 230 228 227 226 217 209 207 204 203 198 188 196 212 200 186 185 187 194 199 204 209 214 218 217 217 223 229 233 236 235 233 234 238 245 250 254 261 272 278 281 284 287 291 296 302 308 310 309 307 305 304 304 304
208 205 204 204 204 206 206 206 207 207 206 202 200 202 202 203 205 209 213 213 213 214 215 219 222 225 229 228 226 224 220 221 226 226 223 222 221 214 207 203 201 203 201 193 197 214 208 194 191 192 194 198 204 208 212 216 219 222 229 233 237 239 239 236 234 239 249 256 260 267 274 278 282 285 290 294 300 307 312 312 311 309 308 307 306 306
205 204 203 203 203 203 203 204 205 206 205 201 199 201 201 202 204 209 212 213 215 216 214 218 223 225 227 227 226 222 216 216 221 221 220 220 218 212 205 202 200 201 205 204 209 227 223 202 197 200 200 202 207 211 216 218 220 225 231 234 235 236 238 238 238 245 257 261 262 268 273 280 285 290 294 299 306 312 315 316 315 313 310 307 305 303
204 204 203 201 201 202 203 204 205 205 203 201 200 201 201 201 204 208 211 212 215 216 214 215 221 225 225 225 224 219 213 213 215 216 215 214 213 211 207 205 205 209 219 220 219 228 223 205 201 206 207 207 210 218 225 222 218 222 227 230 230 232 238 240 242 248 255 257 261 269 277 285 291 295 299 304 312 316 317 318 317 314 311 306 303 301
201 202 202 201 200 200 202 205 207 206 204 202 201 202 203 203 204 207 210 212 216 217 214 214 220 224 224 222 219 215 212 212 213 214 212 208 207 209 208 208 210 216 222 219 215 219 214 204 205 212 215 216 219 229 235 226 217 217 222 228 230 232 237 239 242 246 252 259 267 275 282 289 295 299 304 310 316 317 317 318 316 314 311 306 303 301
201 202 201 200 199 199 201 203 206 208 207 204 203 203 205 207 207 209 212 214 217 219 216 216 220 224 225 221 216 213 211 213 213 214 216 210 206 208 207 205 209 215 214 211 213 212 206 202 206 216 223 225 228 234 238 229 220 219 223 228 231 234 237 239 244 250 258 267 273 280 286 293 299 304 309 312 315 315 315 316 315 313 311 307 304 302
204 204 203 201 199 199 201 202 202 203 204 204 204 204 206 208 210 212 214 216 219 220 218 218 222 226 226 221 215 212 211 214 215 216 219 217 213 210 207 203 207 212 210 207 207 203 197 199 205 217 229 232 233 235 235 231 225 225 228 230 232 233 235 239 247 256 266 272 277 283 289 295 301 306 308 309 310 312 313 313 313 312 311 309 306 304
205 205 204 202 200 200 201 202 202 203 203 201 202 204 206 208 210 212 215 217 221 222 220 220 223 227 226 220 213 210 210 214 217 218 221 222 219 215 213 213 209 206 202 196 194 194 193 195 203 219 235 236 236 235 235 233 228 226 229 230 231 232 235 242 251 262 270 275 280 285 290 296 300 302 303 304 307 309 310 310 310 310 311 310 309 307
206 206 205 201 200 201 202 202 203 205 206 205 205 204 205 208 211 213 216 218 221 223 222 221 223 226 225 218 212 209 209 215 219 220 223 225 223 221 223 222 209 199 195 190 187 187 189 195 204 220 237 240 238 236 235 232 227 224 225 226 229 232 236 245 255 266 273 277 281 285 291 295 296 297 299 301 304 306 307 308 308 309 310 310 309 308
205 207 206 202 199 199 201 202 203 204 206 207 207 206 205 209 213 214 216 219 221 224 223 222 222 225 225 218 212 208 209 215 220 221 223 226 228 228 227 222 211 205 202 197 194 191 189 197 206 218 238 246 245 240 236 231 226 224 222 223 229 234 242 251 262 270 275 278 282 286 290 291 291 294 296 300 303 305 307 308 309 309 311 311 309 308
203 204 204 202 200 199 200 202 203 205 205 204 205 205 205 211 214 215 218 221 223 225 226 225 223 224 225 220 213 208 208 214 220 221 222 225 229 230 228 223 217 212 208 207 220 218 204 203 208 221 241 246 247 244 238 236 233 230 231 231 236 242 251 259 267 273 276 279 282 284 285 286 288 291 296 300 304 306 307 309 311 312 312 311 310 309
203 203 203 201 200 200 202 202 203 206 207 206 206 204 205 209 212 214 218 221 225 227 228 227 226 225 226 223 216 210 209 212 218 221 222 223 225 227 228 224 215 211 211 216 230 228 218 217 216 227 241 241 243 244 240 240 241 242 245 247 250 255 259 265 271 274 276 278 279 280 281 283 287 292 296 301 304 306 308 311 314 315 314 312 311 311
201 202 202 202 201 202 203 202 203 205 208 211 211 210 210 212 212 213 216 218 222 226 227 227 227 225 224 223 218 213 210 212 217 220 221 223 224 225 225 219 211 211 218 224 233 231 228 229 225 228 235 235 240 245 244 247 249 252 255 258 260 262 263 266 270 274 276 277 277 277 280 284 288 292 297 301 304 306 308 311 313 315 315 314 313 312
199 201 202 202 202 203 203 202 203 205 207 210 212 212 214 218 217 217 219 219 220 224 226 227 227 224 221 220 219 215 213 215 219 222 224 226 227 225 221 213 207 212 221 227 234 236 236 236 229 227 229 233 238 240 241 244 249 253 257 261 264 264 264 266 268 271 274 276 277 278 280 284 287 291 295 299 303 305 308 309 311 313 314 314 313 313
198 200 201 200 200 200 201 201 202 204 206 208 208 209 212 217 219 220 222 223 224 225 227 228 228 226 219 216 217 217 216 216 219 223 225 228 228 224 216 207 206 212 221 228 234 236 236 236 230 226 229 236 238 237 241 244 245 248 253 259 262 263 264 265 266 269 272 275 277 278 280 283 286 290 294 298 301 304 306 308 309 311 313 314 314 312
199 199 200 199 198 198 198 198 201 203 205 207 207 207 210 214 217 219 221 222 223 225 227 229 229 228 222 215 215 217 217 217 219 221 224 228 229 226 217 209 207 213 222 229 232 233 233 231 229 228 232 238 241 246 252 249 242 242 247 253 259 262 263 264 265 267 270 273 276 277 279 282 286 290 293 297 300 302 304 306 308 310 312 313 313 312
200 201 201 201 200 200 200 199 201 203 204 205 205 206 209 213 216 218 220 221 222 223 225 227 227 228 225 218 214 215 216 218 218 218 223 227 229 227 222 215 213 216 223 229 232 235 235 230 228 232 237 239 243 250 254 249 243 245 249 252 258 261 263 264 266 268 269 271 273 275 278 281 285 288 292 295 298 301 304 306 307 309 311 313 312 311
198 201 203 202 202 204 205 204 204 205 206 206 206 206 207 211 215 217 220 221 222 223 225 226 226 227 226 222 217 215 215 217 218 220 224 227 226 227 227 223 221 221 224 229 235 238 236 229 228 235 242 242 242 247 252 252 251 255 257 257 260 262 264 266 267 269 269 269 271 274 276 279 282 286 289 293 296 300 303 305 306 308 311 312 312 310
197 199 201 202 201 203 205 206 206 208 209 208 208 208 208 210 214 217 219 220 221 223 225 226 226 226 226 225 222 218 216 217 219 222 224 224 223 225 227 228 228 227 229 236 239 237 235 233 233 239 245 247 245 248 253 254 254 257 261 264 264 264 267 269 269 269 268 268 270 272 275 278 281 284 287 292 295 300 303 304 306 308 310 311 311 310
197 198 199 201 201 201 203 205 206 208 209 209 209 210 210 212 215 217 219 220 221 223 224 226 228 227 226 226 225 223 221 219 218 219 220 220 221 222 224 228 231 233 237 244 245 243 243 242 241 243 248 248 248 250 252 253 256 259 261 265 267 268 269 270 270 268 266 266 268 270 273 276 279 282 286 291 296 300 303 304 306 308 310 311 310 309
195 197 199 200 200 201 203 204 205 207 209 209 209 209 210 213 216 219 221 221 222 223 224 226 228 228 227 227 226 225 225 223 220 218 218 218 219 220 224 228 233 236 241 247 250 251 252 249 248 250 251 251 254 256 255 257 262 263 263 266 269 270 271 271 269 265 263 263 265 268 271 273 277 281 286 291 296 300 302 304 306 308 310 310 309 308
193 196 198 199 200 201 203 204 205 206 208 209 209 209 210 212 215 218 220 221 222 223 224 225 227 228 227 227 227 227 227 227 226 225 225 224 223 224 227 231 235 241 246 251 254 256 257 257 256 255 255 258 262 264 263 265 267 266 266 268 269 269 270 269 266 261 258 260 262 264 268 271 275 281 286 292 297 300 302 303 306 308 309 309 308 307
193 196 198 199 200 202 203 205 206 206 208 209 209 209 210 212 214 216 219 221 222 224 224 225 227 229 229 229 229 230 230 231 232 232 233 233 233 234 236 239 242 246 250 254 256 259 261 260 256 254 258 264 268 269 269 269 269 269 269 269 267 266 266 264 260 256 255 256 259 262 266 270 276 282 287 293 298 300 301 304 306 308 308 308 307 307
193 197 200 201 201 202 204 206 206 207 208 209 209 209 210 212 215 217 218 220 223 224 226 227 228 229 231 232 232 233 234 234 235 237 238 239 241 243 244 246 248 250 253 254 256 259 258 253 250 253 260 266 268 268 269 270 270 270 270 271 267 262 260 259 256 254 253 254 257 261 265 270 277 282 288 295 298 299 301 304 307 308 308 307 307 307
196 198 202 204 204 204 206 208 207 208 209 210 211 210 210 212 214 216 218 220 222 225 227 228 229 230 231 232 234 236 238 238 238 238 239 240 242 244 246 248 249 251 252 249 248 250 246 242 247 257 264 267 267 268 268 270 271 270 271 274 271 264 257 253 252 253 253 253 255 260 265 271 276 283 290 295 296 298 301 305 307 307 307 307 307 308
201 200 202 204 204 205 208 209 210 210 210 212 212 212 212 213 214 216 218 220 222 225 227 229 230 231 232 232 233 234 236 239 239 239 240 241 242 244 246 247 249 252 253 246 239 238 238 242 253 264 267 267 267 268 269 270 271 272 274 273 274 271 259 248 247 251 251 252 254 259 264 271 277 284 290 293 295 298 302 305 306 306 306 307 308 310
203 205 205 205 204 205 207 209 211 212 211 212 213 213 214 214 215 216 218 220 222 224 226 228 229 231 232 232 233 234 235 237 239 241 242 243 244 245 246 247 249 251 249 241 236 239 246 255 262 265 264 263 264 265 266 269 271 273 276 274 273 273 260 244 240 246 247 249 253 257 263 271 278 285 290 292 295 299 302 304 305 305 306 307 309 310
203 207 210 209 207 207 208 209 212 213 213 213 213 214 215 215 216 217 218 220 222 223 226 228 228 230 231 233 234 235 236 236 238 240 243 244 245 246 246 247 248 248 246 244 247 252 258 263 263 262 261 261 261 262 265 268 270 272 275 274 273 271 259 242 235 239 244 247 252 257 264 272 279 286 290 292 295 298 301 303 303 304 305 306 307 308
206 208 211 213 213 212 211 211 212 214 214 214 214 214 214 215 216 217 218 220 222 223 225 228 229 230 232 234 236 237 239 239 239 240 242 243 245 246 248 249 250 251 252 254 257 260 262 264 265 267 267 265 264 266 267 268 270 270 273 274 272 267 257 244 236 237 242 246 251 257 265 273 280 286 289 292 295 297 299 300 301 301 303 305 307 309
208 209 210 212 215 215 214 213 213 212 213 214 214 215 215 215 216 217 218 220 222 223 226 228 230 232 233 235 236 238 240 242 242 242 242 242 244 245 247 249 251 253 255 257 258 260 263 267 270 271 271 270 270 271 269 267 268 269 271 274 271 261 249 241 237 238 241 246 252 258 265 273 280 285 288 290 293 295 296 297 298 299 302 305 308 311
209 209 209 210 212 213 213 214 214 212 212 214 215 215 217 218 219 220 220 222 224 226 229 231 232 234 234 235 236 237 238 241 242 244 244 244 244 245 245 247 249 250 252 253 256 260 265 269 272 273 273 272 272 270 268 265 265 266 268 271 269 259 248 240 237 238 242 247 252 257 265 274 279 283 286 288 291 293 294 296 298 299 302 306 310 312
211 211 211 211 212 211 210 212 213 212 212 214 215 216 219 221 222 223 224 226 228 230 232 233 234 235 236 236 236 237 238 238 237 239 241 240 240 241 242 243 243 245 248 252 256 261 266 270 273 272 271 269 268 266 265 264 264 265 267 267 262 253 245 238 236 238 243 247 253 260 267 273 276 279 283 287 290 291 293 296 299 300 302 307 310 313
215 215 214 213 213 213 211 211 213 213 212 214 215 216 219 223 224 226 227 229 231 232 233 235 236 237 239 239 239 239 239 238 236 236 237 237 237 238 239 240 243 246 250 254 257 262 268 270 271 269 266 264 264 263 264 265 265 264 262 259 254 246 239 235 235 238 243 248 256 262 266 269 273 278 283 287 289 290 292 297 300 300 302 307 310 313
212 217 218 217 216 214 211 211 212 212 213 218 221 221 222 224 225 226 227 229 231 231 232 233 234 236 237 238 239 239 238 237 235 233 233 234 236 238 240 243 247 251 254 257 260 264 267 269 268 266 263 261 261 261 263 265 265 262 255 250 246 243 239 236 235 238 244 251 257 261 264 268 274 279 285 287 288 288 291 296 299 300 302 306 310 312
203 211 218 221 219 217 213 211 211 210 212 219 223 225 227 229 229 230 230 230 231 231 231 232 232 232 233 235 237 238 238 237 235 233 232 232 235 238 241 245 250 254 258 261 263 265 267 267 267 266 263 260 259 260 262 262 260 256 251 246 245 244 241 239 239 242 247 252 257 262 266 271 276 282 285 287 287 287 290 295 298 299 301 305 309 310
211 212 218 222 221 219 216 214 215 215 215 219 221 222 226 228 229 231 232 232 232 232 231 231 231 230 231 234 236 238 238 236 234 233 234 235 235 237 241 245 250 254 257 259 261 263 265 266 268 268 265 261 260 259 259 256 252 249 247 247 248 245 242 242 244 245 247 253 260 266 269 273 279 283 284 285 286 287 290 294 296 297 300 305 308 307
216 220 224 223 219 218 218 219 221 221 219 220 220 221 223 225 225 227 229 230 231 231 231 232 232 233 233 234 235 237 238 235 231 231 234 237 237 239 242 245 248 252 255 257 260 262 263 263 265 266 262 259 258 258 258 257 253 248 244 243 243 242 240 241 240 240 247 258 264 267 270 275 279 282 283 285 286 288 290 292 293 296 301 305 305 303
213 219 223 221 217 215 215 218 222 223 224 224 224 223 224 226 227 228 229 230 232 234 235 236 236 236 235 235 235 236 236 233 228 228 232 236 239 241 244 247 250 253 255 257 259 260 260 261 263 262 256 252 252 253 256 258 253 243 237 235 235 233 233 235 237 241 251 260 262 265 270 275 279 282 285 286 287 288 289 290 293 298 301 302 301 300
213 215 216 217 217 214 209 209 212 215 217 220 221 222 223 225 228 231 233 235 236 238 239 239 238 236 235 234 235 233 232 231 230 228 230 234 237 241 243 246 248 250 252 254 255 256 257 258 258 255 252 250 248 247 249 251 246 236 229 229 231 232 234 238 243 248 254 259 262 267 271 275 279 282 284 286 287 288 289 291 295 298 299 298 297 297
215 214 214 215 216 214 210 207 206 207 209 212 215 218 222 225 228 231 233 234 236 238 239 239 236 234 233 232 231 229 228 230 231 230 229 231 234 236 238 240 241 243 245 247 249 251 252 251 249 249 250 250 247 243 244 247 246 243 241 242 245 248 249 250 251 253 257 260 264 267 270 275 279 281 282 284 286 287 289 293 296 297 295 294 294 296
215 214 214 215 217 217 215 213 212 212 214 216 218 221 223 225 227 228 228 228 229 231 233 232 230 228 227 226 224 223 225 228 230 229 229 230 232 233 234 235 236 237 240 242 245 246 245 243 244 247 248 247 245 242 242 245 248 250 252 254 256 257 257 256 256 258 259 262 265 269 273 276 278 278 280 282 284 287 290 293 293 292 291 290 292 298
218 217 217 218 220 221 222 223 223 224 225 226 227 227 227 228 228 227 225 224 225 226 227 226 224 222 220 219 218 220 223 226 228 229 230 231 233 235 236 237 238 238 240 242 242 239 236 237 244 246 243 240 240 239 240 244 247 250 253 256 257 257 257 257 257 258 261 264 268 271 274 275 275 276 278 280 284 288 290 289 287 286 287 289 293 300
Height
5705 5708 5712 5717 5721 5725 5729 5734 5739 5743 5745 5748 5751 5753 5757 5760 5762 5763 5766 5768 5771 5774 5777 5780 5782 5785 5787 5789 5791 5793 5797 5801 5804 5805 5806 5808 5809 5809 5810 5811 5812 5813 5814 5816 5817 5818 5819 5821 5822 5823 5824 5826 5827 5829 5829 5830 5830 5831 5831 5832 5833 5833 5834 5834 5835 5835 5836 5837 5837 5838 5838 5839 5839 5839 5839 5839 5839 5839 5840 5840 5839 5838 5838 5837 5836 5835
5701 5705 5709 5715 5720 5724 5728 5732 5736 5738 5741 5744 5747 5750 5753 5757 5759 5761 5763 5766 5769 5772 5775 5778 5780 5782 5784 5786 5788 5790 5794 5798 5801 5803 5804 5805 5806 5806 5806 5807 5807 5808 5810 5812 5814 5817 5818 5819 5820 5821 5822 5824 5825 5826 5827 5828 5828 5829 5829 5830 5831 5831 5831 5832 5832 5833 5834 5835 5836 5836 5837 5837 5837 5838 5838 5837 5838 5838 5838 5838 5837 5836 5836 5835 5834 5833
5696 5701 5706 5711 5716 5720 5723 5727 5731 5734 5737 5740 5744 5746 5750 5754 5757 5759 5761 5764 5767 5770 5772 5776 5778 5779 5781 5784 5786 5788 5791 5794 5798 5800 5802 5803 5803 5804 5804 5805 5804 5803 5806 5810 5811 5813 5815 5816 5817 5819 5820 5822 5823 5824 5825 5825 5826 5827 5827 5828 5829 5829 5829 5830 5830 5831 5832 5833 5834 5835 5835 5836 5836 5836 5836 5836 5836 5836 5836 5836 5835 5834 5833 5833 5832 5831
5693 5698 5703 5708 5712 5716 5719 5723 5727 5730 5733 5737 5740 5744 5748 5751 5754 5757 5760 5762 5765 5767 5770 5773 5775 5776 5779 5781 5783 5785 5788 5791 5795 5797 5800 5801 5802 5803 5804 5807 5807 5803 5802 5807 5809 5811 5813 5814 5815 5817 5819 5820 5821 5822 5823 5823 5824 5825 5826 5826 5826 5827 5827 5828 5829 5830 5831 5832 5833 5833 5834 5834 5835 5835 5835 5835 5834 5834 5834 5834 5833 5832 5831 5831 5830 5829
5691 5697 5702 5706 5710 5713 5717 5720 5724 5727 5730 5734 5738 5742 5746 5749 5752 5755 5758 5761 5763 5765 5767 5770 5772 5773 5775 5778 5780 5783 5786 5789 5792 5795 5798 5800 5801 5803 5803 5806 5809 5808 5805 5804 5806 5809 5811 5813 5814 5816 5817 5819 5820 5821 5821 5822 5823 5824 5824 5824 5824 5825 5826 5827 5828 5829 5830 5831 5831 5832 5833 5833 5833 5834 5833 5833 5833 5832 5832 5832 5831 5831 5830 5829 5828 5827
5688 5694 5699 5703 5708 5711 5715 5718 5722 5725 5728 5732 5736 5740 5744 5747 5749 5752 5756 5759 5761 5762 5764 5766 5769 5770 5772 5774 5777 5780 5783 5787 5789 5792 5796 5799 5800 5802 5803 5804 5806 5808 5808 5805 5803 5805 5809 5811 5813 5815 5816 5817 5818 5819 5820 5821 5822 5822 5822 5823 5823 5823 5824 5825 5826 5827 5829 5830 5830 5831 5832 5832 5832 5832 5832 5831 5831 5831 5830 5830 5830 5829 5828 5827 5826 5825
5685 5690 5695 5699 5704 5708 5712 5716 5719 5722 5726 5729 5733 5738 5741 5744 5746 5749 5753 5756 5758 5759 5760 5763 5765 5767 5768 5771 5774 5777 5781 5784 5786 5789 5793 5796 5798 5799 5801 5803 5803 5804 5806 5807 5806 5804 5805 5809 5812 5813 5815 5816 5817 5818 5819 5820 5821 5821 5821 5821 5822 5822 5823 5823 5825 5826 5827 5828 5829 5830 5830 5831 5831 5830 5830 5829 5829 5829 5828 5828 5828 5827 5826 5825 5824 5823
5681 5687 5691 5696 5700 5704 5708 5713 5716 5720 5723 5727 5732 5736 5738 5741 5744 5747 5750 5753 5755 5756 5758 5759 5761 5763 5765 5768 5771 5775 5777 5780 5783 5786 5790 5794 5796 5797 5799 5801 5803 5803 5803 5806 5808 5806 5803 5807 5810 5811 5813 5814 5816 5817 5818 5819 5819 5820 5820 5820 5820 5821 5821 5822 5823 5825 5826 5827 5828 5828 5829 5829 5829 5829 5829 5828 5828 5827 5827 5826 5825 5824 5824 5823 5822 5821
5678 5684 5689 5693 5697 5701 5705 5710 5715 5718 5721 5725 5730 5733 5736 5739 5742 5744 5747 5750 5752 5753 5754 5755 5757 5760 5762 5765 5769 5771 5773 5777 5781 5784 5788 5792 5793 5795 5798 5799 5801 5803 5802 5802 5805 5805 5803 5805 5808 5810 5811 5812 5814 5815 5816 5817 5818 5818 5819 5819 5819 5819 5820 5821 5822 5823 5825 5825 5826 5827 5828 5828 5828 5828 5827 5827 5827 5826 5825 5824 5823 5822 5821 5821 5820 5819
5677 5683 5688 5692 5696 5700 5705 5709 5713 5716 5719 5724 5728 5731 5734 5736 5739 5741 5743 5746 5748 5749 5750 5752 5754 5756 5758 5761 5765 5768 5771 5776 5780 5783 5787 5790 5791 5793 5796 5797 5800 5801 5801 5800 5802 5803 5803 5804 5807 5808 5809 5810 5811 5812 5813 5814 5816 5817 5817 5818 5818 5818 5819 5820 5821 5822 5823 5824 5825 5826 5826 5826 5826 5826 5825 5825 5825 5824 5824 5822 5821 5820 5819 5819 5818 5817
5675 5681 5685 5688 5693 5698 5703 5707 5710 5713 5717 5721 5725 5728 5730 5733 5736 5738 5740 5742 5744 5745 5747 5749 5751 5753 5755 5758 5761 5766 5771 5776 5779 5782 5784 5787 5789 5791 5793 5795 5798 5799 5799 5799 5800 5800 5801 5803 5805 5806 5807 5808 5809 5810 5811 5812 5814 5815 5816 5816 5817 5817 5817 5818 5819 5820 5821 5822 5823 5823 5824 5824 5824 5824 5824 5823 5823 5822 5821 5820 5819 5818 5818 5817 5815 5814
5671 5675 5679 5684 5689 5693 5698 5702 5705 5709 5713 5717 5721 5724 5727 5729 5732 5734 5735 5738 5739 5740 5744 5747 5748 5750 5752 5755 5760 5766 5771 5774 5776 5779 5782 5785 5788 5790 5791 5793 5796 5797 5797 5798 5798 5799 5800 5801 5803 5804 5806 5807 5808 5809 5809 5810 5812 5813 5814 5815 5815 5816 5816 5817 5818 5818 5819 5820 5821 5821 5821 5821 5821 5821 5821 5821 5820 5820 5819 5818 5817 5816 5816 5815 5814 5812
5667 5671 5676 5681 5685 5690 5694 5698 5701 5705 5709 5713 5716 5719 5722 5724 5726 5728 5730 5732 5733 5736 5741 5745 5746 5747 5749 5754 5759 5764 5769 5771 5774 5776 5779 5782 5786 5788 5790 5792 5794 5794 5794 5795 5797 5798 5799 5799 5800 5802 5804 5805 5806 5807 5808 5809 5810 5811 5812 5813 5813 5814 5815 5815 5816 5817 5818 5818 5818 5819 5819 5819 5819 5819 5819 5819 5818 5817 5817 5816 5815 5815 5814 5813 5812 5810
5662 5667 5672 5677 5681 5686 5691 5695 5698 5702 5706 5710 5713 5715 5717 5719 5721 5722 5725 5728 5730 5734 5739 5743 5743 5744 5747 5753 5758 5763 5766 5769 5771 5774 5776 5779 5783 5786 5788 5790 5791 5792 5792 5793 5795 5797 5797 5797 5798 5800 5802 5803 5804 5805 5806 5807 5808 5809 5810 5811 5812 5812 5813 5814 5815 5816 5816 5816 5816 5816 5817 5817 5817 5817 5817 5817 5816 5816 5815 5815 5814 5813 5812 5811 5809 5808
5659 5663 5667 5672 5678 5682 5687 5692 5697 5702 5707 5709 5711 5713 5715 5717 5719 5721 5724 5727 5729 5733 5738 5740 5740 5741 5745 5752 5758 5762 5765 5767 5769 5772 5774 5777 5780 5783 5785 5786 5788 5789 5790 5791 5793 5794 5794 5795 5797 5798 5800 5802 5803 5804 5805 5806 5806 5807 5808 5809 5810 5811 5811 5812 5813 5814 5814 5814 5814 5815 5815 5816 5816 5816 5815 5815 5815 5814 5813 5813 5812 5811 5810 5809 5808 5806
5659 5663 5667 5671 5676 5680 5684 5689 5694 5698 5702 5705 5708 5711 5713 5715 5719 5721 5724 5727 5729 5731 5735 5738 5738 5739 5744 5752 5758 5761 5763 5765 5767 5770 5773 5775 5778 5780 5782 5784 5784 5785 5786 5788 5789 5791 5792 5793 5795 5797 5798 5800 5801 5802 5803 5804 5805 5806 5806 5807 5808 5809 5810 5810 5811 5811 5812 5812 5812 5813 5813 5814 5814 5814 5814 5813 5813 5812 5812 5811 5811 5810 5808 5807 5806 5805
5656 5661 5665 5670 5675 5679 5683 5688 5692 5695 5698 5701 5704 5706 5709 5713 5716 5719 5722 5724 5726 5729 5732 5735 5736 5738 5744 5751 5756 5758 5760 5762 5765 5768 5771 5773 5775 5778 5780 5780 5780 5781 5783 5783 5783 5786 5789 5791 5793 5795 5797 5798 5799 5800 5801 5802 5803 5804 5805 5806 5807 5807 5808 5809 5809 5810 5810 5810 5811 5811 5811 5811 5812 5812 5812 5811 5811 5811 5810 5810 5809 5808 5806 5805 5804 5802
5655 5658 5663 5668 5673 5678 5682 5686 5690 5694 5697 5699 5701 5704 5708 5712 5714 5716 5718 5721 5723 5725 5729 5732 5734 5737 5742 5748 5753 5756 5758 5761 5763 5766 5769 5770 5773 5775 5778 5779 5781 5784 5785 5784 5781 5781 5786 5789 5791 5793 5795 5796 5797 5798 5799 5800 5801 5802 5803 5804 5805 5805 5806 5807 5807 5808 5808 5808 5809 5809 5809 5809 5810 5810 5810 5809 5809 5809 5808 5807 5807 5805 5804 5803 5801 5800
5653 5657 5662 5667 5671 5675 5680 5683 5687 5690 5693 5697 5701 5704 5708 5709 5710 5712 5715 5717 5719 5722 5726 5730 5733 5736 5739 5745 5751 5755 5758 5760 5762 5765 5767 5769 5771 5774 5777 5780 5783 5786 5787 5787 5784 5783 5785 5787 5790 5792 5793 5794 5795 5796 5797 5798 5799 5800 5801 5802 5803 5804 5804 5805 5805 5806 5806 5807 5807 5807 5807 5808 5808 5808 5808 5807 5807 5806 5806 5805 5804 5803 5802 5800 5799 5797
5650 5654 5659 5664 5669 5673 5676 5679 5682 5685 5688 5693 5696 5701 5704 5706 5708 5711 5713 5715 5718 5721 5725 5728 5731 5734 5737 5744 5750 5753 5756 5759 5761 5763 5765 5768 5770 5774 5776 5778 5781 5783 5784 5785 5785 5785 5785 5786 5788 5790 5791 5792 5794 5795 5796 5797 5798 5799 5800 5800 5801 5802 5802 5803 5803 5804 5804 5805 5805 5805 5805 5806 5806 5805 5805 5805 5804 5804 5803 5802 5801 5800 5799 5798 5796 5794
5647 5652 5657 5661 5666 5669 5671 5675 5679 5683 5687 5691 5693 5696 5700 5701 5704 5708 5711 5714 5717 5720 5723 5726 5729 5733 5737 5742 5747 5751 5754 5756 5758 5760 5762 5765 5769 5772 5774 5776 5779 5780 5780 5782 5783 5784 5785 5786 5788 5789 5790 5791 5792 5793 5794 5795 5796 5797 5798 5798 5799 5800 5801 5801 5802 5802 5802 5803 5803 5803 5803 5803 5803 5803 5803 5802 5802 5801 5800 5799 5798 5797 5796 5794 5793 5791
5645 5650 5654 5658 5662 5665 5669 5674 5679 5684 5688 5692 5695 5698 5700 5700 5703 5706 5708 5711 5714 5717 5720 5723 5727 5731 5736 5740 5744 5748 5751 5754 5756 5757 5760 5763 5766 5769 5771 5773 5776 5777 5778 5780 5782 5783 5784 5785 5786 5788 5789 5790 5791 5792 5792 5793 5793 5794 5795 5796 5797 5798 5799 5799 5800 5800 5800 5801 5801 5801 5801 5801 5801 5800 5800 5799 5799 5798 5797 5796 5795 5794 5793 5791 5790 5788
5643 5648 5652 5656 5660 5664 5669 5675 5679 5683 5686 5690 5693 5698 5700 5701 5704 5706 5707 5710 5712 5715 5718 5722 5725 5730 5734 5738 5742 5745 5749 5752 5753 5756 5758 5761 5764 5766 5768 5771 5773 5775 5777 5778 5780 5781 5782 5783 5784 5786 5787 5788 5789 5790 5790 5791 5791 5792 5793 5794 5795 5796 5796 5797 5797 5798 5798 5799 5799 5799 5799 5798 5798 5798 5797 5797 5796 5795 5794 5793 5792 5791 5789 5788 5786 5785
5641 5645 5649 5653 5658 5663 5668 5673 5676 5679 5682 5685 5689 5693 5697 5699 5702 5704 5706 5710 5713 5715 5718 5721 5724 5728 5732 5736 5740 5743 5747 5750 5752 5754 5756 5759 5761 5763 5766 5768 5771 5773 5775 5777 5778 5779 5780 5781 5782 5784 5785 5786 5787 5788 5789 5789 5790 5790 5791 5792 5793 5794 5794 5794 5795 5795 5796 5796 5796 5796 5796 5796 5795 5795 5794 5794 5793 5792 5792 5790 5789 5788 5786 5785 5783 5781
5639 5643 5646 5650 5654 5658 5662 5666 5670 5673 5677 5681 5685 5690 5693 5695 5698 5701 5704 5707 5711 5714 5717 5720 5723 5727 5731 5735 5738 5741 5744 5747 5750 5752 5754 5756 5759 5761 5764 5766 5768 5770 5772 5774 5776 5776 5777 5778 5780 5781 5783 5784 5784 5785 5786 5787 5787 5788 5789 5790 5791 5791 5792 5792 5792 5793 5793 5793 5793 5793 5793 5793 5792 5792 5791 5791 5790 5789 5789 5787 5786 5785 5783 5782 5780 5778
5639 5642 5645 5649 5652 5655 5658 5661 5664 5668 5672 5676 5681 5686 5689 5692 5695 5699 5702 5705 5708 5711 5714 5717 5721 5725 5729 5733 5736 5739 5742 5745 5748 5750 5752 5754 5756 5759 5761 5763 5766 5768 5770 5771 5772 5773 5774 5776 5778 5779 5780 5781 5782 5782 5783 5784 5784 5785 5786 5787 5788 5789 5789 5789 5790 5790 5790 5791 5790 5790 5790 5790 5789 5789 5788 5788 5787 5786 5785 5784 5783 5781 5780 5779 5777 5775
5639 5642 5645 5649 5653 5657 5660 5663 5666 5669 5672 5675 5679 5683 5686 5690 5693 5696 5699 5702 5706 5710 5712 5715 5719 5722 5726 5729 5733 5737 5740 5743 5745 5748 5750 5752 5754 5756 5759 5761 5763 5765 5767 5767 5768 5769 5772 5775 5777 5777 5778 5779 5779 5780 5780 5781 5782 5783 5784 5785 5785 5786 5786 5786 5787 5787 5787 5787 5787 5787 5787 5787 5786 5786 5785 5785 5784 5783 5782 5781 5780 5778 5777 5775 5774 5773
5636 5640 5644 5648 5652 5656 5659 5663 5667 5669 5672 5676 5679 5683 5685 5688 5690 5693 5696 5700 5704 5707 5710 5713 5717 5720 5723 5727 5730 5734 5737 5740 5743 5745 5748 5750 5752 5755 5757 5759 5760 5762 5763 5764 5766 5768 5772 5773 5774 5775 5775 5776 5776 5777 5778 5778 5780 5781 5781 5782 5782 5783 5783 5783 5783 5784 5784 5784 5784 5784 5784 5783 5783 5782 5782 5781 5781 5780 5779 5778 5777 5775 5774 5773 5771 5770
5634 5638 5641 5645 5649 5653 5656 5660 5664 5667 5670 5674 5678 5681 5685 5687 5689 5692 5695 5699 5702 5704 5708 5712 5715 5718 5721 5724 5727 5731 5734 5737 5740 5742 5745 5747 5749 5752 5754 5756 5758 5759 5761 5762 5764 5767 5769 5770 5771 5772 5772 5773 5774 5775 5775 5776 5777 5778 5778 5778 5779 5779 5779 5779 5780 5780 5780 5780 5781 5780 5780 5780 5780 5779 5779 5778 5778 5777 5776 5775 5773 5772 5771 5770 5768 5767
5632 5636 5639 5643 5646 5650 5653 5657 5661 5664 5667 5671 5675 5678 5682 5685 5688 5691 5694 5697 5700 5703 5706 5709 5712 5715 5719 5721 5724 5728 5730 5733 5736 5739 5742 5744 5747 5749 5751 5753 5755 5756 5758 5759 5761 5763 5764 5766 5767 5768 5769 5769 5771 5772 5772 5772 5773 5774 5774 5775 5775 5775 5776 5776 5777 5777 5777 5777 5777 5777 5777 5777 5776 5776 5776 5775 5775 5774 5773 5771 5770 5769 5768 5767 5765 5764
5630 5634 5637 5640 5644 5647 5651 5654 5658 5661 5665 5668 5672 5676 5679 5682 5685 5688 5691 5694 5697 5700 5704 5707 5709 5712 5716 5719 5722 5724 5727 5730 5733 5736 5739 5742 5744 5747 5749 5750 5752 5753 5754 5755 5756 5758 5760 5762 5763 5764 5764 5766 5767 5768 5768 5768 5769 5770 5770 5771 5771 5771 5772 5773 5773 5773 5773 5774 5774 5774 5774 5773 5773 5773 5773 5772 5771 5770 5769 5768 5767 5766 5765 5763 5762 5761
5629 5632 5635 5638 5642 5645 5649 5652 5656 5660 5663 5666 5670 5673 5676 5679 5682 5685 5688 5692 5695 5698 5701 5704 5707 5710 5713 5716 5719 5722 5725 5728 5731 5733 5736 5739 5741 5744 5746 5748 5749 5750 5751 5752 5753 5755 5757 5758 5759 5760 5761 5762 5763 5764 5764 5764 5765 5765 5766 5766 5767 5767 5768 5769 5769 5770 5770 5770 5770 5770 5770 5770 5770 5770 5769 5769 5768 5767 5766 5765 5764 5763 5761 5760 5759 5758
5629 5632 5634 5637 5641 5644 5648 5651 5654 5658 5662 5664 5667 5670 5674 5677 5680 5683 5686 5689 5693 5696 5698 5701 5705 5708 5711 5713 5716 5719 5722 5725 5728 5731 5733 5736 5738 5740 5742 5744 5745 5746 5747 5749 5751 5752 5754 5755 5756 5757 5758 5759 5759 5760 5760 5760 5761 5761 5761 5761 5761 5762 5763 5765 5765 5766 5766 5766 5766 5767 5767 5767 5766 5766 5766 5766 5765 5764 5763 5762 5760 5759 5758 5757 5756 5754
5629 5631 5634 5637 5641 5644 5647 5650 5654 5657 5659 5662 5665 5669 5672 5675 5678 5681 5684 5687 5690 5693 5696 5699 5702 5705 5708 5711 5714 5716 5719 5722 5725 5727 5730 5732 5734 5736 5738 5740 5741 5742 5744 5747 5749 5750 5751 5752 5753 5754 5755 5755 5755 5756 5756 5756 5757 5757 5757 5757 5757 5757 5759 5760 5761 5761 5762 5762 5763 5763 5763 5763 5763 5763 5763 5763 5762 5761 5760 5759 5757 5756 5755 5754 5752 5751
5629 5631 5633 5636 5640 5643 5646 5649 5652 5655 5658 5661 5664 5667 5670 5673 5676 5679 5682 5685 5688 5691 5694 5696 5699 5702 5705 5708 5710 5713 5715 5718 5721 5723 5726 5728 5730 5732 5734 5736 5737 5739 5742 5745 5746 5747 5748 5749 5750 5751 5751 5751 5751 5752 5752 5752 5752 5753 5753 5753 5754 5754 5754 5755 5756 5757 5758 5758 5759 5759 5760 5760 5760 5760 5760 5759 5759 5758 5757 5756 5755 5753 5752 5751 5749 5748
5628 5630 5632 5635 5638 5641 5644 5647 5650 5653 5656 5659 5662 5665 5668 5671 5674 5677 5680 5682 5685 5688 5691 5693 5696 5699 5701 5704 5707 5709 5712 5715 5717 5719 5722 5724 5726 5728 5730 5732 5734 5736 5739 5740 5742 5743 5745 5746 5747 5748 5748 5748 5748 5748 5748 5748 5749 5749 5749 5749 5750 5750 5751 5751 5752 5753 5754 5755 5755 5756 5756 5757 5757 5757 5757 5756 5755 5755 5754 5753 5752 5750 5749 5748 5746 5745
5627 5629 5632 5634 5636 5639 5642 5646 5649 5651 5655 5658 5661 5664 5666 5669 5672 5675 5678 5680 5683 5686 5688 5690 5693 5696 5698 5701 5704 5706 5709 5712 5714 5716 5719 5721 5723 5725 5727 5729 5731 5733 5735 5736 5737 5739 5741 5742 5743 5744 5744 5744 5744 5744 5745 5745 5745 5745 5745 5745 5746 5746 5747 5747 5748 5749 5750 5751 5752 5752 5753 5753 5754 5754 5754 5753 5752 5752 5751 5750 5749 5748 5746 5745 5744 5743
5625 5628 5631 5634 5636 5639 5642 5644 5647 5650 5653 5656 5659 5661 5664 5667 5670 5672 5675 5678 5680 5683 5685 5687 5690 5693 5696 5699 5701 5704 5706 5708 5711 5714 5716 5718 5720 5723 5725 5726 5728 5730 5731 5733 5734 5736 5737 5738 5739 5740 5741 5741 5741 5741 5741 5741 5741 5741 5742 5742 5742 5742 5743 5744 5745 5745 5746 5748 5749 5749 5750 5750 5751 5751 5750 5750 5749 5749 5748 5747 5746 5745 5744 5743 5741 5740
5623 5626 5629 5632 5635 5637 5640 5643 5645 5648 5651 5654 5656 5659 5662 5665 5667 5670 5673 5675 5677 5680 5683 5685 5688 5691 5694 5696 5699 5701 5703 5706 5709 5712 5714 5716 5718 5720 5722 5723 5725 5726 5728 5729 5731 5732 5733 5734 5735 5736 5736 5737 5737 5737 5737 5737 5737 5738 5738 5738 5738 5739 5739 5740 5741 5742 5743 5744 5745 5746 5747 5747 5747 5747 5747 5747 5746 5746 5745 5744 5743 5742 5741 5740 5738 5737
5621 5624 5626 5629 5631 5635 5638 5641 5643 5647 5649 5652 5654 5657 5660 5662 5664 5667 5670 5673 5675 5678 5681 5683 5686 5688 5691 5693 5696 5698 5701 5703 5706 5708 5710 5712 5714 5716 5718 5720 5721 5723 5725 5726 5727 5728 5729 5730 5731 5731 5732 5732 5733 5733 5733 5733 5733 5734 5734 5735 5735 5735 5736 5736 5738 5739 5740 5741 5742 5743 5743 5744 5744 5744 5744 5744 5743 5743 5742 5741 5740 5739 5738 5737 5735 5734
5619 5622 5624 5627 5629 5633 5636 5638 5641 5644 5648 5650 5652 5655 5657 5660 5662 5665 5669 5671 5674 5676 5678 5680 5683 5685 5687 5690 5693 5695 5698 5700 5702 5704 5706 5708 5710 5712 5714 5716 5717 5719 5720 5722 5723 5724 5725 5726 5726 5726 5727 5728 5728 5728 5729 5729 5729 5729 5730 5730 5731 5731 5732 5733 5734 5736 5737 5738 5739 5740 5740 5740 5740 5740 5741 5740 5740 5739 5739 5738 5737 5736 5735 5734 5732 5731
5618 5620 5622 5625 5628 5631 5634 5637 5639 5642 5646 5648 5650 5653 5655 5657 5660 5664 5667 5669 5671 5673 5675 5677 5680 5682 5684 5687 5689 5691 5694 5696 5698 5700 5702 5704 5706 5708 5710 5712 5713 5715 5717 5718 5719 5720 5721 5721 5722 5722 5723 5724 5724 5724 5725 5725 5725 5725 5725 5726 5727 5728 5729 5730 5732 5733 5734 5735 5736 5736 5737 5737 5737 5737 5737 5737 5737 5736 5735 5734 5734 5733 5732 5730 5729 5728
5617 5619 5621 5624 5626 5629 5632 5634 5637 5641 5644 5647 5649 5651 5653 5656 5659 5662 5664 5666 5667 5670 5672 5674 5676 5679 5681 5683 5685 5687 5690 5692 5694 5696 5698 5700 5702 5704 5706 5708 5710 5711 5713 5714 5715 5716 5717 5717 5718 5719 5720 5720 5720 5720 5721 5721 5722 5721 5721 5722 5724 5725 5726 5728 5729 5730 5731 5732 5733 5733 5733 5734 5734 5734 5734 5734 5733 5732 5732 5731 5730 5729 5729 5727 5726 5725
5616 5618 5621 5623 5625 5628 5630 5633 5637 5641 5644 5645 5647 5650 5652 5654 5656 5659 5661 5663 5664 5666 5669 5671 5673 5675 5677 5679 5681 5683 5686 5688 5690 5692 5694 5696 5698 5700 5702 5704 5706 5707 5709 5710 5711 5712 5712 5713 5714 5715 5716 5716 5716 5717 5717 5717 5718 5718 5719 5720 5722 5723 5724 5725 5726 5727 5728 5729 5729 5730 5730 5731 5731 5731 5731 5730 5730 5729 5729 5728 5727 5726 5725 5724 5723 5722
5616 5618 5620 5622 5624 5626 5629 5632 5636 5639 5641 5643 5645 5648 5649 5651 5653 5655 5657 5659 5661 5663 5665 5667 5669 5672 5674 5676 5678 5680 5682 5684 5686 5688 5690 5692 5694 5697 5699 5701 5702 5704 5705 5706 5707 5708 5708 5709 5710 5711 5712 5713 5713 5713 5713 5714 5714 5715 5716 5718 5719 5720 5721 5722 5723 5724 5725 5726 5726 5727 5727 5728 5728 5728 5727 5727 5727 5726 5726 5725 5724 5723 5722 5721 5720 5719
5616 5617 5619 5621 5622 5625 5627 5629 5632 5636 5638 5640 5642 5644 5646 5648 5650 5652 5654 5656 5658 5660 5662 5664 5666 5668 5670 5672 5674 5676 5678 5680 5682 5684 5686 5688 5690 5693 5695 5697 5699 5700 5701 5703 5704 5704 5705 5706 5707 5708 5709 5709 5709 5710 5710 5710 5710 5711 5712 5714 5715 5717 5718 5719 5720 5721 5722 5723 5724 5724 5724 5724 5724 5724 5724 5724 5724 5723 5722 5721 5721 5720 5719 5718 5718 5717
5614 5616 5618 5619 5621 5623 5625 5627 5630 5633 5635 5637 5639 5641 5643 5645 5646 5648 5650 5652 5654 5656 5658 5660 5662 5665 5667 5669 5671 5673 5675 5676 5678 5679 5682 5684 5686 5689 5691 5693 5695 5696 5698 5699 5699 5700 5701 5702 5704 5705 5705 5705 5706 5707 5708 5708 5708 5709 5710 5711 5713 5714 5716 5717 5718 5719 5720 5720 5721 5721 5721 5721 5721 5721 5721 5721 5720 5720 5719 5718 5717 5717 5716 5715 5715 5714
5613 5614 5616 5617 5619 5621 5623 5625 5627 5629 5632 5634 5635 5637 5639 5641 5643 5645 5647 5649 5651 5652 5654 5656 5658 5660 5663 5665 5667 5669 5671 5673 5674 5676 5678 5680 5683 5685 5687 5689 5690 5692 5693 5694 5695 5696 5697 5699 5700 5701 5701 5702 5703 5705 5706 5707 5707 5707 5709 5710 5711 5712 5714 5715 5715 5716 5717 5717 5717 5718 5718 5718 5718 5718 5718 5718 5717 5716 5716 5715 5714 5714 5713 5713 5712 5711
5611 5613 5614 5616 5617 5619 5620 5622 5624 5626 5628 5630 5631 5633 5635 5637 5639 5641 5643 5645 5647 5648 5649 5651 5653 5655 5658 5661 5663 5665 5667 5669 5671 5673 5675 5677 5679 5681 5682 5684 5686 5687 5689 5690 5691 5692 5694 5696 5697 5698 5698 5699 5701 5702 5704 5704 5704 5705 5706 5707 5709 5710 5711 5711 5712 5713 5713 5714 5714 5715 5715 5715 5715 5715 5715 5714 5714 5713 5713 5712 5711 5711 5711 5710 5710 5709
5610 5611 5613 5614 5615 5617 5618 5620 5621 5623 5625 5627 5629 5630 5632 5634 5636 5638 5640 5642 5643 5644 5645 5647 5649 5651 5654 5656 5659 5662 5664 5666 5668 5670 5672 5673 5675 5677 5679 5680 5682 5683 5685 5686 5688 5689 5691 5692 5694 5695 5695 5696 5698 5700 5701 5701 5702 5703 5704 5705 5706 5707 5707 5708 5709 5710 5710 5711 5711 5712 5712 5712 5712 5712 5711 5711 5710 5710 5709 5709 5708 5708 5708 5708 5707 5706
5609 5610 5611 5613 5614 5615 5617 5618 5620 5622 5624 5625 5627 5628 5630 5632 5634 5635 5637 5639 5640 5642 5643 5644 5646 5648 5650 5653 5655 5658 5661 5663 5665 5667 5668 5670 5672 5674 5675 5677 5678 5680 5681 5683 5684 5686 5688 5689 5690 5691 5692 5693 5695 5696 5697 5698 5699 5700 5701 5702 5703 5704 5704 5705 5706 5707 5707 5708 5708 5708 5708 5709 5708 5708 5708 5708 5707 5707 5706 5706 5706 5706 5705 5705 5704 5703